Time,TemperatureF,DewpointF,PressureIn,WindDirection,WindDirectionDegrees,WindSpeedMPH,WindSpeedGustMPH,Humidity,HourlyPrecipIn,Conditions,Clouds,dailyrainin,SolarRadiationWatts/m^2,SoftwareType,DateUTC
2013-05-03 00:00:00,49.0,46.0,-100.00,WNW,292,4.0,-999.0,90,-99.99,,,-99.99,0.000000,,2013-05-03 04:00:00,
2013-05-03 00:43:00,49.0,46.0,-100.00,WNW,292,4.0,-999.0,90,-99.99,,,-99.99,0.000000,,2013-05-03 04:43:00,
2013-05-03 00:53:00,49.0,46.0,-100.00,WNW,292,4.0,-999.0,90,-99.99,,,-99.99,0.000000,,2013-05-03 04:53:00,
2013-05-03 01:00:00,49.0,47.0,-100.00,WNW,292,4.0,-999.0,91,-99.99,,,-99.99,0.000000,,2013-05-03 05:00:00,
2013-05-03 01:42:00,49.0,47.0,-100.00,WNW,292,4.0,-999.0,91,-99.99,,,-99.99,0.000000,,2013-05-03 05:42:00,
2013-05-03 01:52:00,49.0,47.0,-100.00,WNW,292,4.0,-999.0,91,-99.99,,,-99.99,0.000000,,2013-05-03 05:52:00,
2013-05-03 02:00:00,48.0,46.0,-100.00,WNW,292,4.0,-999.0,92,-99.99,,,-99.99,0.000000,,2013-05-03 06:00:00,
2013-05-03 02:42:00,48.0,46.0,-100.00,WNW,292,4.0,-999.0,92,-99.99,,,-99.99,0.000000,,2013-05-03 06:42:00,
2013-05-03 02:52:00,48.0,46.0,-100.00,WNW,292,4.0,-999.0,92,-99.99,,,-99.99,0.000000,,2013-05-03 06:52:00,
2013-05-03 03:00:00,46.0,45.0,-100.00,SW,225,5.0,-999.0,93,-99.99,,,-99.99,0.000000,,2013-05-03 07:00:00,
2013-05-03 03:42:00,46.0,45.0,-100.00,SW,225,5.0,-999.0,93,-99.99,,,-99.99,0.000000,,2013-05-03 07:42:00,
2013-05-03 03:52:00,46.0,45.0,-100.00,SW,225,5.0,-999.0,93,-99.99,,,-99.99,0.000000,,2013-05-03 07:52:00,
2013-05-03 04:00:00,45.0,44.0,-100.00,South,180,4.0,-999.0,94,-99.99,,,-99.99,0.000000,,2013-05-03 08:00:00,
2013-05-03 04:42:00,45.0,44.0,-100.00,South,180,4.0,-999.0,94,-99.99,,,-99.99,0.000000,,2013-05-03 08:42:00,
2013-05-03 04:53:00,45.0,44.0,-100.00,South,180,4.0,-999.0,94,-99.99,,,-99.99,0.000000,,2013-05-03 08:53:00,
2013-05-03 05:00:00,45.0,43.0,-100.00,ESE,112,3.0,-999.0,95,-99.99,,,-99.99,0.000000,,2013-05-03 09:00:00,
2013-05-03 05:42:00,45.0,43.0,-100.00,ESE,112,3.0,-999.0,95,-99.99,,,-99.99,0.000000,,2013-05-03 09:42:00,
2013-05-03 05:53:00,45.0,43.0,-100.00,ESE,112,3.0,-999.0,95,-99.99,,,-99.99,0.000000,,2013-05-03 09:53:00,
2013-05-03 06:00:00,45.0,44.0,-100.00,SW,225,3.0,-999.0,94,-99.99,,,-99.99,0.000000,,2013-05-03 10:00:00,
2013-05-03 06:42:00,45.0,44.0,-100.00,SW,225,3.0,-999.0,94,-99.99,,,-99.99,0.000000,,2013-05-03 10:42:00,
2013-05-03 06:52:00,45.0,44.0,-100.00,SW,225,3.0,-999.0,94,-99.99,,,-99.99,0.000000,,2013-05-03 10:52:00,
2013-05-03 07:00:00,45.0,44.0,-100.00,ENE,67,5.0,-999.0,93,-99.99,,,-99.99,5.800000,,2013-05-03 11:00:00,
2013-05-03 07:42:00,45.0,44.0,-100.00,ENE,67,5.0,-999.0,93,-99.99,,,-99.99,5.800000,,2013-05-03 11:42:00,
2013-05-03 07:52:00,45.0,44.0,-100.00,ENE,67,5.0,-999.0,93,-99.99,,,-99.99,5.800000,,2013-05-03 11:52:00,
2013-05-03 09:00:00,52.0,48.0,-100.00,NE,45,5.0,-999.0,83,-99.99,,,-99.99,125.279999,,2013-05-03 13:00:00,
2013-05-03 09:42:00,52.0,48.0,-100.00,NE,45,5.0,-999.0,83,-99.99,,,-99.99,125.279999,,2013-05-03 13:42:00,
2013-05-03 09:52:00,52.0,48.0,-100.00,NE,45,5.0,-999.0,83,-99.99,,,-99.99,125.279999,,2013-05-03 13:52:00,
2013-05-03 10:00:00,57.0,50.0,-100.00,ENE,67,6.0,-999.0,77,-99.99,,,-99.99,199.520004,,2013-05-03 14:00:00,
2013-05-03 10:42:00,57.0,50.0,-100.00,ENE,67,6.0,-999.0,77,-99.99,,,-99.99,199.520004,,2013-05-03 14:42:00,
2013-05-03 10:52:00,57.0,50.0,-100.00,ENE,67,6.0,-999.0,77,-99.99,,,-99.99,199.520004,,2013-05-03 14:52:00,
2013-05-03 11:00:00,62.0,53.0,-100.00,ENE,67,5.0,-999.0,70,-99.99,,,-99.99,299.279999,,2013-05-03 15:00:00,
2013-05-03 11:43:00,62.0,53.0,-100.00,ENE,67,5.0,-999.0,70,-99.99,,,-99.99,299.279999,,2013-05-03 15:43:00,
2013-05-03 11:53:00,62.0,53.0,-100.00,ENE,67,5.0,-999.0,70,-99.99,,,-99.99,299.279999,,2013-05-03 15:53:00,
2013-05-03 12:00:00,68.0,55.0,-100.00,ESE,112,6.0,-999.0,63,-99.99,,,-99.99,447.760010,,2013-05-03 16:00:00,
2013-05-03 12:42:00,68.0,55.0,-100.00,ESE,112,6.0,-999.0,63,-99.99,,,-99.99,447.760010,,2013-05-03 16:42:00,
2013-05-03 12:52:00,68.0,55.0,-100.00,ESE,112,6.0,-999.0,63,-99.99,,,-99.99,447.760010,,2013-05-03 16:52:00,
2013-05-03 13:00:00,72.0,55.0,-100.00,SE,135,6.0,-999.0,56,-99.99,,,-99.99,530.119995,,2013-05-03 17:00:00,
2013-05-03 13:42:00,72.0,55.0,-100.00,SE,135,6.0,-999.0,56,-99.99,,,-99.99,530.119995,,2013-05-03 17:42:00,
2013-05-03 13:52:00,72.0,55.0,-100.00,SE,135,6.0,-999.0,56,-99.99,,,-99.99,530.119995,,2013-05-03 17:52:00,
2013-05-03 14:00:00,74.0,54.0,-100.00,ESE,112,9.0,-999.0,49,-99.99,,,-99.99,484.880005,,2013-05-03 18:00:00,
2013-05-03 14:42:00,74.0,54.0,-100.00,ESE,112,9.0,-999.0,49,-99.99,,,-99.99,484.880005,,2013-05-03 18:42:00,
2013-05-03 14:52:00,74.0,54.0,-100.00,ESE,112,9.0,-999.0,49,-99.99,,,-99.99,484.880005,,2013-05-03 18:52:00,
2013-05-03 15:00:00,75.0,54.0,-100.00,SE,135,9.0,-999.0,47,-99.99,,,-99.99,370.040009,,2013-05-03 19:00:00,
2013-05-03 15:42:00,75.0,54.0,-100.00,SE,135,9.0,-999.0,47,-99.99,,,-99.99,370.040009,,2013-05-03 19:42:00,
2013-05-03 15:52:00,75.0,54.0,-100.00,SE,135,9.0,-999.0,47,-99.99,,,-99.99,370.040009,,2013-05-03 19:52:00,
2013-05-03 16:00:00,76.0,54.0,-100.00,SE,135,8.0,-999.0,46,-99.99,,,-99.99,451.239990,,2013-05-03 20:00:00,
2013-05-03 16:42:00,76.0,54.0,-100.00,SE,135,8.0,-999.0,46,-99.99,,,-99.99,451.239990,,2013-05-03 20:42:00,
2013-05-03 16:52:00,76.0,54.0,-100.00,SE,135,8.0,-999.0,46,-99.99,,,-99.99,451.239990,,2013-05-03 20:52:00,
2013-05-03 17:00:00,76.0,53.0,-100.00,ESE,112,9.0,-999.0,44,0.01,,,-99.99,319.000000,,2013-05-03 21:00:00,
2013-05-03 17:33:00,76.0,53.0,-100.00,ESE,112,9.0,-999.0,44,0.01,,,-99.99,319.000000,,2013-05-03 21:33:00,
2013-05-03 17:43:00,76.0,53.0,-100.00,ESE,112,9.0,-999.0,44,0.01,,,-99.99,319.000000,,2013-05-03 21:43:00,
2013-05-03 17:53:00,76.0,53.0,-100.00,ESE,112,9.0,-999.0,44,0.01,,,-99.99,319.000000,,2013-05-03 21:53:00,
2013-05-03 21:00:00,64.0,55.0,-100.00,SW,225,3.0,-999.0,72,-99.99,,,-99.99,9.280000,,2013-05-04 01:00:00,
2013-05-03 21:42:00,64.0,55.0,-100.00,SW,225,3.0,-999.0,72,-99.99,,,-99.99,9.280000,,2013-05-04 01:42:00,
2013-05-03 21:52:00,64.0,55.0,-100.00,SW,225,3.0,-999.0,72,-99.99,,,-99.99,9.280000,,2013-05-04 01:52:00,
2013-05-03 22:00:00,63.0,55.0,-100.00,ESE,112,3.0,-999.0,76,-99.99,,,-99.99,0.000000,,2013-05-04 02:00:00,
2013-05-03 22:42:00,63.0,55.0,-100.00,ESE,112,3.0,-999.0,76,-99.99,,,-99.99,0.000000,,2013-05-04 02:42:00,
2013-05-03 22:52:00,63.0,55.0,-100.00,ESE,112,3.0,-999.0,76,-99.99,,,-99.99,0.000000,,2013-05-04 02:52:00,
2013-05-03 23:00:00,65.0,49.0,-100.00,East,90,4.0,-999.0,56,-99.99,,,-99.99,0.000000,,2013-05-04 03:00:00,
2013-05-03 23:43:00,65.0,49.0,-100.00,East,90,4.0,-999.0,56,-99.99,,,-99.99,0.000000,,2013-05-04 03:43:00,
2013-05-03 23:53:00,65.0,49.0,-100.00,East,90,4.0,-999.0,56,-99.99,,,-99.99,0.000000,,2013-05-04 03:53:00,